Terminal Aerodrome Forecast
Issued by NWS

Home | Current Version | Previous Version | Text Only | Print | Product List | Glossary On
Versions: 1 2 3 4 5 6 7 8 9 10 11 12 13 14 15 16 17
000
FTUS45 KRIW 291700
TAFJAC
TAF
KJAC 291725Z 2918/3018 36006KT P6SM OVC015
     FM292000 VRB05KT P6SM SCT025 SCT200
     FM292200 20006KT P6SM SKC
     FM300300 01005KT P6SM FEW090 SCT200
      AMD LTD TO CLD VIS AND WIND=

USA.gov is the U.S. government's official web portal to all federal, state and local government web resources and services.